This is the latest recevied weather packets stored in our database for station/object SR6WXP. If no packets are shown the sender has not sent any weather packets the latest 1 day(s).
| Time | Temp. | Humidity | Pressure | Rain* | Wind** | Luminosity | Snow |
|---|---|---|---|---|---|---|---|
| 1777988095 | 25° C | 36% | 983 hPa | - | 3.13 m/s, 138° | - | - |
| 1777987856 | 25° C | 36% | 983 hPa | - | 3.13 m/s, 147° | - | - |
| 1777987615 | 25° C | 36% | 983 hPa | - | 4.02 m/s, 171° | - | - |
| 1777987373 | 25° C | 37% | 983.1 hPa | - | 3.13 m/s, 142° | - | - |
| 1777987133 | 25° C | 37% | 983.1 hPa | - | 1.34 m/s, 139° | - | - |
| 1777986891 | 24.44° C | 37% | 983.2 hPa | - | 1.79 m/s, 159° | - | - |
| 1777986651 | 24.44° C | 37% | 983.2 hPa | - | 3.58 m/s, 157° | - | - |
| 1777986411 | 24.44° C | 37% | 983.3 hPa | - | 3.58 m/s, 132° | - | - |
| 1777986172 | 24.44° C | 37% | 983.3 hPa | - | 4.47 m/s, 162° | - | - |
| 1777985932 | 24.44° C | 38% | 983.3 hPa | - | 0.89 m/s, 153° | - | - |
| 1777985689 | 24.44° C | 37% | 983.4 hPa | - | 2.68 m/s, 195° | - | - |
| 1777985449 | 24.44° C | 38% | 983.5 hPa | - | 1.79 m/s, 126° | - | - |
| 1777985209 | 23.89° C | 38% | 983.6 hPa | - | 3.58 m/s, 178° | - | - |
| 1777984969 | 23.89° C | 38% | 983.6 hPa | - | 2.68 m/s, 132° | - | - |
| 1777984729 | 23.89° C | 38% | 983.5 hPa | - | 2.68 m/s, 174° | - | - |
| 1777984480 | 23.89° C | 38% | 983.6 hPa | - | 2.24 m/s, 187° | - | - |
| 1777984239 | 23.89° C | 38% | 983.7 hPa | - | 4.02 m/s, 130° | - | - |
| 1777983998 | 23.89° C | 38% | 983.7 hPa | - | 3.58 m/s, 127° | - | - |
| 1777983757 | 23.33° C | 38% | 983.8 hPa | - | 2.68 m/s, 133° | - | - |
| 1777983517 | 23.33° C | 38% | 983.7 hPa | - | 2.68 m/s, 118° | - | - |
| 1777983275 | 23.33° C | 38% | 983.8 hPa | - | 2.68 m/s, 171° | - | - |
| 1777983033 | 23.33° C | 39% | 983.9 hPa | - | 3.13 m/s, 168° | - | - |
| 1777982792 | 22.78° C | 39% | 983.9 hPa | - | 3.13 m/s, 165° | - | - |
| 1777982552 | 22.78° C | 39% | 984 hPa | - | 3.13 m/s, 144° | - | - |
| 1777982312 | 22.78° C | 39% | 984 hPa | - | 2.68 m/s, 177° | - | - |
* Rain since midnight (hover to see other rain measurements)
** Current wind speed in m/s (hover to see current wind gust speed)